QPF
0.00 0.00 0.00 0.00 0.00 0.00 0.00 0.00 0.00 0.00 0.00 0.00 0.00 0.00 0.00 0.00 0.00 0.00 0.00 0.00 0.00 0.00 0.00 0.00 0.00 0.00 0.00 0.00 0.00 0.00 0.00 0.00 0.00 0.00 0.00 0.00 0.00 0.00 0.00 0.00 0.00 0.00 0.00 0.00 0.00
0.00 0.00 0.00 0.00 0.00 0.00 0.00 0.00 0.00 0.00 0.00 0.00 0.00 0.00 0.00 0.00 0.00 0.00 0.00 0.00 0.00 0.00 0.00 0.00 0.00 0.00 0.00 0.00 0.00 0.00 0.00 0.00 0.00 0.00 0.00 0.00 0.00 0.00 0.00 0.00 0.00 0.00 0.00 0.00 0.00
0.00 0.00 0.00 0.00 0.00 0.00 0.00 0.00 0.00 0.00 0.00 0.00 0.00 0.00 0.00 0.00 0.00 0.00 0.00 0.00 0.00 0.00 0.00 0.00 0.00 0.00 0.00 0.00 0.00 0.00 0.00 0.00 0.00 0.00 0.00 0.00 0.00 0.00 0.00 0.00 0.00 0.00 0.00 0.00 0.00
0.00 0.00 0.00 0.00 0.00 0.00 0.00 0.00 0.00 0.00 0.00 0.00 0.00 0.00 0.00 0.00 0.00 0.00 0.00 0.00 0.00 0.00 0.00 0.00 0.00 0.00 0.00 0.00 0.00 0.00 0.00 0.00 0.00 0.00 0.00 0.00 0.00 0.00 0.00 0.00 0.00 0.00 0.00 0.00 0.00
0.00 0.00 0.00 0.00 0.00 0.00 0.00 0.00 0.00 0.00 0.00 0.00 0.00 0.00 0.00 0.00 0.00 0.00 0.00 0.00 0.00 0.00 0.00 0.00 0.00 0.00 0.00 0.00 0.00 0.00 0.00 0.00 0.00 0.00 0.00 0.00 0.00 0.00 0.00 0.00 0.00 0.00 0.00 0.00 0.00
0.00 0.00 0.00 0.00 0.00 0.00 0.00 0.00 0.00 0.00 0.00 0.00 0.00 0.00 0.00 0.00 0.00 0.00 0.00 0.00 0.00 0.00 0.00 0.00 0.00 0.00 0.00 0.00 0.00 0.00 0.00 0.00 0.00 0.00 0.00 0.00 0.00 0.00 0.00 0.00 0.00 0.00 0.00 0.00 0.00
0.00 0.00 0.00 0.00 0.00 0.00 0.00 0.00 0.00 0.00 0.00 0.00 0.00 0.00 0.00 0.00 0.00 0.00 0.00 0.00 0.00 0.00 0.00 0.00 0.00 0.00 0.00 0.00 0.00 0.00 0.00 0.00 0.00 0.00 0.00 0.00 0.00 0.00 0.00 0.00 0.00 0.00 0.00 0.00 0.00
0.00 0.00 0.00 0.00 0.00 0.00 0.00 0.00 0.00 0.00 0.00 0.00 0.00 0.00 0.00 0.00 0.00 0.00 0.00 0.00 0.00 0.00 0.00 0.00 0.00 0.00 0.00 0.00 0.00 0.00 0.00 0.00 0.00 0.00 0.00 0.00 0.00 0.00 0.00 0.00 0.00 0.00 0.00 0.00 0.00
0.00 0.00 0.00 0.00 0.00 0.00 0.00 0.00 0.00 0.00 0.00 0.00 0.00 0.00 0.00 0.00 0.00 0.00 0.00 0.00 0.00 0.00 0.00 0.00 0.00 0.00 0.00 0.00 0.00 0.00 0.00 0.00 0.00 0.00 0.00 0.00 0.00 0.00 0.00 0.00 0.00 0.00 0.00 0.00 0.00
0.00 0.00 0.00 0.00 0.00 0.00 0.00 0.00 0.00 0.00 0.00 0.00 0.00 0.00 0.00 0.00 0.00 0.00 0.00 0.00 0.00 0.00 0.00 0.00 0.00 0.00 0.00 0.00 0.00 0.00 0.00 0.00 0.00 0.00 0.00 0.00 0.00 0.00 0.00 0.00 0.00 0.00 0.00 0.00 0.00
0.00 0.00 0.00 0.00 0.00 0.00 0.00 0.00 0.00 0.00 0.00 0.00 0.00 0.00 0.00 0.00 0.00 0.00 0.00 0.00 0.00 0.00 0.00 0.00 0.00 0.00 0.00 0.00 0.00 0.00 0.00 0.00 0.00 0.00 0.00 0.00 0.00 0.00 0.00 0.00 0.00 0.00 0.00 0.00 0.00
0.00 0.00 0.00 0.00 0.00 0.00 0.00 0.00 0.00 0.00 0.00 0.00 0.00 0.00 0.00 0.00 0.00 0.00 0.00 0.00 0.00 0.00 0.00 0.00 0.00 0.00 0.00 0.00 0.00 0.00 0.00 0.00 0.00 0.00 0.00 0.00 0.00 0.00 0.00 0.00 0.00 0.00 0.00 0.00 0.00
0.00 0.00 0.00 0.00 0.00 0.00 0.00 0.00 0.00 0.00 0.00 0.00 0.00 0.00 0.00 0.00 0.00 0.00 0.00 0.00 0.00 0.00 0.00 0.00 0.00 0.00 0.00 0.00 0.00 0.00 0.00 0.00 0.00 0.00 0.00 0.00 0.00 0.00 0.00 0.00 0.00 0.00 0.00 0.00 0.00
0.00 0.00 0.00 0.00 0.00 0.00 0.00 0.00 0.00 0.00 0.00 0.00 0.00 0.00 0.00 0.00 0.00 0.00 0.00 0.00 0.00 0.00 0.00 0.00 0.00 0.00 0.00 0.00 0.00 0.00 0.00 0.00 0.00 0.00 0.00 0.00 0.00 0.00 0.00 0.00 0.00 0.00 0.00 0.00 0.00
0.00 0.00 0.00 0.00 0.00 0.00 0.00 0.00 0.00 0.00 0.00 0.00 0.00 0.00 0.00 0.00 0.00 0.00 0.00 0.00 0.00 0.00 0.00 0.00 0.00 0.00 0.00 0.00 0.00 0.00 0.00 0.00 0.00 0.00 0.00 0.00 0.00 0.00 0.00 0.00 0.00 0.00 0.00 0.00 0.00
0.00 0.00 0.00 0.00 0.00 0.00 0.00 0.00 0.00 0.00 0.00 0.00 0.00 0.00 0.00 0.00 0.00 0.00 0.00 0.00 0.00 0.00 0.00 0.00 0.00 0.00 0.00 0.00 0.00 0.00 0.00 0.00 0.00 0.00 0.00 0.00 0.00 0.00 0.00 0.00 0.00 0.00 0.00 0.00 0.00
0.00 0.00 0.00 0.00 0.00 0.00 0.00 0.00 0.00 0.00 0.00 0.00 0.00 0.00 0.00 0.00 0.00 0.00 0.00 0.00 0.00 0.00 0.00 0.00 0.00 0.00 0.00 0.00 0.00 0.00 0.00 0.00 0.00 0.00 0.00 0.00 0.00 0.00 0.00 0.00 0.00 0.00 0.00 0.00 0.00
0.00 0.00 0.01 0.00 0.00 0.00 0.00 0.00 0.00 0.00 0.00 0.00 0.00 0.00 0.00 0.00 0.00 0.00 0.00 0.00 0.00 0.00 0.00 0.00 0.00 0.00 0.00 0.00 0.00 0.00 0.00 0.00 0.00 0.00 0.00 0.00 0.00 0.00 0.00 0.00 0.00 0.00 0.00 0.00 0.00
0.00 0.00 0.00 0.00 0.00 0.00 0.00 0.00 0.00 0.00 0.00 0.00 0.00 0.00 0.00 0.00 0.00 0.00 0.00 0.00 0.00 0.00 0.00 0.00 0.00 0.00 0.00 0.00 0.00 0.00 0.00 0.00 0.00 0.00 0.00 0.00 0.00 0.00 0.00 0.00 0.00 0.00 0.00 0.00 0.00
0.00 0.00 0.00 0.00 0.00 0.00 0.00 0.00 0.00 0.00 0.00 0.00 0.00 0.00 0.00 0.00 0.00 0.00 0.00 0.00 0.00 0.00 0.00 0.00 0.00 0.00 0.00 0.00 0.00 0.00 0.00 0.00 0.00 0.00 0.00 0.00 0.00 0.00 0.00 0.00 0.00 0.00 0.00 0.00 0.00
0.00 0.00 0.00 0.00 0.00 0.00 0.00 0.00 0.00 0.00 0.00 0.00 0.00 0.00 0.00 0.00 0.00 0.00 0.00 0.00 0.00 0.00 0.00 0.00 0.00 0.00 0.00 0.00 0.00 0.00 0.00 0.00 0.00 0.00 0.00 0.00 0.00 0.00 0.00 0.00 0.00 0.00 0.00 0.00 0.00
0.00 0.00 0.00 0.00 0.00 0.00 0.00 0.00 0.00 0.00 0.00 0.00 0.00 0.00 0.00 0.00 0.00 0.00 0.00 0.00 0.00 0.00 0.00 0.00 0.00 0.00 0.00 0.00 0.00 0.00 0.00 0.00 0.00 0.00 0.00 0.00 0.00 0.00 0.00 0.00 0.00 0.00 0.00 0.00 0.00
0.00 0.00 0.01 0.00 0.00 0.00 0.00 0.00 0.00 0.00 0.00 0.00 0.00 0.00 0.00 0.00 0.00 0.00 0.00 0.00 0.00 0.00 0.00 0.00 0.00 0.00 0.00 0.00 0.00 0.00 0.00 0.00 0.00 0.00 0.00 0.00 0.00 0.00 0.00 0.00 0.00 0.00 0.00 0.00 0.00
0.00 0.00 0.00 0.00 0.00 0.00 0.00 0.00 0.00 0.00 0.00 0.00 0.00 0.00 0.00 0.00 0.00 0.00 0.00 0.00 0.00 0.00 0.00 0.00 0.00 0.00 0.00 0.00 0.00 0.00 0.00 0.00 0.00 0.00 0.00 0.00 0.00 0.00 0.00 0.00 0.00 0.00 0.00 0.00 0.00
0.00 0.00 0.00 0.00 0.00 0.00 0.00 0.00 0.00 0.00 0.00 0.00 0.00 0.00 0.00 0.00 0.00 0.00 0.00 0.00 0.00 0.00 0.00 0.00 0.00 0.00 0.00 0.00 0.00 0.00 0.00 0.00 0.00 0.00 0.00 0.00 0.00 0.00 0.00 0.00 0.00 0.00 0.00 0.00 0.00
0.00 0.00 0.00 0.00 0.00 0.00 0.00 0.00 0.00 0.00 0.00 0.00 0.00 0.00 0.00 0.00 0.00 0.00 0.00 0.00 0.00 0.00 0.00 0.00 0.00 0.00 0.00 0.00 0.00 0.00 0.00 0.00 0.00 0.00 0.00 0.00 0.00 0.00 0.00 0.00 0.00 0.00 0.00 0.00 0.00
0.00 0.00 0.00 0.00 0.00 0.00 0.00 0.00 0.00 0.00 0.00 0.00 0.00 0.00 0.00 0.00 0.00 0.00 0.00 0.00 0.00 0.00 0.00 0.00 0.00 0.00 0.00 0.00 0.00 0.00 0.00 0.00 0.00 0.00 0.00 0.00 0.00 0.00 0.00 0.00 0.00 0.01 0.01 0.01 0.00
MSLP
1016.78 1017.13 1017.09 1017.22 1017.31 1017.60 1017.40 1017.37 1017.35 1017.05 1016.94 1016.53 1016.15 1015.68 1015.00 1014.04 1012.86 1011.83 1011.43 1009.93 1009.64 1009.48 1009.49 1009.44 1009.17 1009.28 1009.19 1009.55 1009.59 1010.11 1011.23 1011.31 1010.34 1009.34 1007.92 1006.67 1006.03 1004.64 1004.19 1004.16 1004.52 1005.66 1005.95 1006.11 1007.73
1016.57 1016.83 1016.83 1016.87 1017.01 1017.27 1017.35 1017.02 1017.11 1017.04 1016.87 1016.52 1016.19 1015.70 1014.94 1013.97 1013.41 1011.34 1009.75 1009.64 1009.57 1009.51 1009.40 1009.60 1009.55 1009.52 1009.68 1009.66 1009.54 1009.98 1010.46 1009.98 1009.27 1008.40 1007.51 1006.31 1005.86 1005.06 1004.79 1004.92 1005.36 1006.45 1006.92 1007.08 1007.99
1015.99 1016.22 1016.60 1016.52 1016.69 1017.08 1017.06 1016.84 1016.93 1016.87 1016.90 1016.57 1016.32 1015.63 1014.79 1014.04 1013.19 1010.48 1009.63 1009.85 1009.81 1009.74 1009.70 1009.67 1009.62 1009.79 1009.92 1009.67 1009.50 1009.57 1009.66 1008.94 1008.19 1007.63 1007.06 1006.29 1005.58 1004.90 1004.86 1004.82 1005.14 1006.00 1007.20 1007.77 1008.14
1015.54 1015.85 1016.02 1016.29 1016.38 1016.54 1016.66 1016.77 1016.80 1016.79 1016.74 1016.63 1016.33 1015.77 1014.69 1014.19 1012.70 1009.78 1009.39 1009.59 1009.84 1009.77 1009.79 1009.57 1009.72 1009.88 1009.93 1009.83 1009.40 1009.44 1008.84 1008.45 1007.72 1007.06 1006.84 1006.18 1005.23 1004.62 1004.26 1004.33 1004.62 1005.17 1006.11 1007.28 1007.78
1014.96 1015.25 1015.55 1015.75 1016.09 1016.21 1016.27 1016.46 1016.70 1016.57 1016.50 1016.62 1016.32 1016.00 1014.81 1014.28 1011.80 1009.46 1009.46 1009.44 1009.92 1009.76 1009.74 1009.74 1009.84 1009.86 1009.85 1009.57 1009.49 1009.09 1008.49 1007.80 1007.22 1006.91 1006.43 1006.09 1005.52 1004.83 1004.49 1004.21 1004.36 1005.05 1006.04 1006.71 1007.17
1014.28 1014.62 1014.92 1015.10 1015.63 1015.83 1015.94 1016.18 1016.43 1016.40 1016.34 1016.33 1016.32 1016.18 1015.51 1013.70 1009.85 1009.38 1009.27 1009.55 1009.78 1009.84 1009.42 1009.58 1009.63 1009.78 1009.86 1009.54 1009.63 1008.86 1008.46 1007.88 1007.12 1006.65 1006.08 1005.88 1005.07 1004.74 1004.14 1004.06 1004.25 1004.97 1005.44 1005.88 1006.19
1013.53 1013.93 1014.42 1014.77 1014.80 1015.40 1015.57 1015.70 1016.09 1016.16 1016.21 1016.19 1016.20 1016.18 1015.22 1011.96 1009.56 1009.17 1009.52 1009.33 1009.14 1009.37 1009.27 1009.06 1009.15 1009.62 1009.79 1009.80 1009.21 1009.10 1008.77 1007.96 1006.90 1006.40 1005.86 1005.69 1005.04 1004.24 1003.54 1003.77 1003.92 1004.05 1004.48 1005.05 1005.41
1012.77 1013.19 1013.69 1014.11 1014.47 1014.83 1015.21 1015.32 1015.68 1015.92 1016.07 1015.99 1016.04 1015.99 1013.68 1010.13 1009.30 1009.05 1008.82 1008.78 1008.47 1008.51 1008.76 1008.61 1008.72 1009.28 1009.63 1009.71 1009.62 1009.68 1009.37 1008.54 1006.63 1006.20 1005.54 1005.89 1005.25 1003.86 1003.39 1003.63 1003.54 1003.50 1003.64 1003.83 1004.43
1012.03 1012.51 1012.95 1013.58 1013.97 1014.51 1014.79 1015.21 1015.33 1015.57 1015.73 1015.71 1015.91 1015.57 1012.10 1009.47 1009.09 1007.62 1007.88 1008.23 1008.02 1007.83 1008.06 1008.52 1008.77 1009.16 1009.56 1010.31 1010.56 1010.41 1009.97 1009.19 1007.50 1006.17 1005.93 1005.81 1005.31 1004.13 1003.22 1003.45 1003.28 1003.33 1003.11 1003.10 1003.32
1011.18 1011.80 1012.27 1012.86 1013.48 1014.05 1014.67 1015.12 1014.80 1015.16 1014.92 1015.12 1014.91 1015.08 1011.17 1008.96 1007.80 1007.22 1007.19 1007.53 1007.75 1008.06 1008.33 1008.80 1009.38 1009.46 1009.93 1010.90 1010.99 1010.59 1010.21 1009.16 1008.33 1006.00 1006.16 1005.78 1005.43 1004.91 1004.25 1003.81 1003.91 1003.90 1003.59 1002.71 1002.59
1010.29 1010.98 1011.65 1012.27 1013.01 1013.82 1014.92 1015.22 1015.15 1014.98 1014.31 1012.73 1012.16 1011.16 1009.30 1008.22 1007.25 1007.31 1007.06 1007.29 1007.92 1008.26 1009.03 1009.20 1009.96 1009.76 1009.89 1010.04 1009.95 1009.96 1009.69 1009.12 1007.92 1006.79 1006.37 1005.72 1005.12 1004.91 1004.49 1004.23 1003.91 1003.84 1003.64 1003.48 1003.22
1009.29 1010.05 1010.94 1011.85 1012.81 1013.52 1014.16 1014.29 1013.42 1013.55 1012.59 1011.43 1010.81 1010.27 1009.20 1008.75 1008.50 1007.23 1007.44 1007.72 1008.09 1008.66 1009.05 1009.64 1009.44 1009.14 1009.32 1009.46 1009.73 1009.54 1009.04 1008.49 1007.75 1006.83 1006.43 1005.50 1004.22 1004.59 1004.47 1003.99 1003.81 1003.75 1003.85 1003.42 1003.06
1008.05 1009.08 1010.17 1011.55 1012.68 1013.64 1013.51 1013.21 1013.36 1013.24 1012.61 1010.03 1009.28 1008.25 1007.87 1008.21 1007.27 1006.62 1007.13 1007.09 1007.78 1008.51 1008.86 1008.89 1008.27 1008.41 1008.77 1008.80 1009.09 1008.70 1008.54 1008.28 1007.84 1007.16 1006.59 1005.84 1003.39 1004.48 1004.03 1003.60 1003.85 1003.97 1004.11 1004.74 1004.89
1006.91 1008.24 1009.51 1011.25 1013.20 1012.85 1013.10 1012.91 1013.63 1013.68 1012.80 1008.66 1007.50 1005.55 1005.64 1006.05 1005.62 1005.49 1005.59 1006.76 1007.35 1007.79 1008.66 1008.10 1007.78 1007.91 1007.89 1007.80 1008.16 1007.83 1007.91 1008.09 1008.14 1008.13 1008.13 1007.17 1004.14 1005.76 1004.59 1004.59 1004.66 1004.90 1005.37 1005.82 1005.78
1005.78 1007.24 1008.36 1008.98 1010.57 1011.82 1011.78 1012.46 1013.69 1014.49 1012.25 1007.31 1005.53 1004.08 1004.03 1005.16 1004.29 1003.82 1004.33 1005.87 1006.25 1007.28 1007.91 1007.01 1006.91 1007.09 1007.06 1006.93 1006.89 1007.18 1007.68 1007.99 1008.32 1008.63 1008.88 1008.45 1008.33 1006.93 1005.79 1006.27 1007.17 1007.11 1007.40 1007.76 1007.73
1004.48 1006.04 1007.28 1009.06 1009.90 1010.41 1011.43 1012.30 1013.55 1014.35 1010.77 1007.28 1005.09 1004.25 1004.63 1004.84 1004.47 1004.31 1004.91 1005.33 1005.87 1006.90 1007.02 1007.13 1006.64 1006.74 1006.33 1006.36 1006.88 1007.28 1007.78 1008.42 1008.79 1009.33 1009.22 1008.93 1009.21 1007.50 1008.46 1009.26 1009.17 1009.19 1009.64 1009.46 1009.11
1002.68 1004.59 1006.04 1007.44 1008.55 1009.57 1010.70 1012.17 1013.32 1012.07 1009.56 1006.80 1005.40 1004.78 1004.66 1004.69 1004.88 1004.71 1005.12 1005.65 1006.11 1007.08 1007.19 1007.17 1006.72 1006.38 1006.22 1006.57 1006.96 1007.49 1008.46 1009.74 1010.34 1010.75 1009.86 1009.34 1009.70 1009.03 1010.12 1010.33 1010.50 1010.55 1010.71 1010.80 1010.48
1002.08 1003.17 1004.22 1005.78 1007.41 1008.70 1009.84 1011.31 1011.08 1009.10 1008.22 1006.81 1005.66 1005.01 1005.03 1004.82 1004.96 1005.26 1005.62 1006.06 1006.27 1006.84 1007.39 1007.56 1007.55 1006.80 1006.87 1007.25 1007.53 1007.93 1008.55 1010.01 1010.78 1011.53 1011.38 1010.72 1010.07 1009.65 1010.50 1010.65 1010.81 1011.11 1011.09 1010.73 1010.78
1001.84 1003.71 1004.27 1005.33 1006.12 1007.44 1008.74 1008.84 1008.31 1008.28 1007.84 1006.61 1006.58 1005.69 1005.39 1004.92 1004.93 1005.44 1005.89 1006.49 1006.80 1007.11 1007.95 1008.34 1008.61 1008.34 1007.94 1007.83 1008.04 1008.96 1009.77 1010.55 1011.74 1012.87 1012.93 1011.65 1010.55 1010.91 1010.77 1010.62 1010.87 1011.03 1011.04 1011.09 1010.77
1001.86 1004.07 1005.19 1004.93 1006.08 1006.67 1007.12 1007.39 1008.64 1008.45 1007.66 1006.94 1006.70 1006.68 1006.03 1005.51 1005.50 1005.65 1005.92 1006.99 1007.39 1007.72 1007.75 1008.89 1009.35 1009.22 1009.07 1008.56 1009.13 1009.53 1010.56 1011.70 1013.12 1014.30 1013.87 1011.92 1011.47 1010.71 1010.56 1010.80 1010.73 1010.71 1010.63 1010.70 1010.51
1001.48 1003.76 1005.82 1005.46 1005.86 1006.72 1006.85 1007.52 1008.36 1007.99 1007.21 1007.56 1007.05 1006.74 1006.28 1006.24 1006.18 1006.31 1007.33 1007.99 1007.85 1008.19 1008.31 1009.11 1009.90 1010.19 1009.64 1009.68 1010.30 1011.01 1011.75 1013.01 1014.03 1014.89 1014.93 1013.61 1011.33 1010.21 1010.73 1011.19 1011.15 1011.05 1010.71 1010.47 1010.15
1000.97 1003.63 1005.15 1005.45 1005.89 1006.72 1006.99 1007.23 1007.44 1007.50 1007.60 1007.75 1007.45 1006.75 1006.74 1006.75 1007.24 1008.00 1008.09 1007.90 1008.23 1008.25 1009.37 1010.18 1010.71 1011.14 1010.86 1010.54 1010.74 1011.45 1012.46 1013.61 1014.72 1015.72 1015.58 1015.15 1010.95 1009.61 1010.33 1010.88 1010.98 1010.69 1010.26 1009.85 1009.63
1001.72 1004.05 1005.11 1005.14 1004.85 1006.11 1006.85 1006.98 1006.99 1007.46 1007.44 1007.52 1007.62 1007.14 1006.92 1007.43 1008.15 1008.19 1008.59 1008.86 1008.73 1009.16 1009.67 1010.41 1011.42 1012.15 1011.79 1012.06 1012.04 1012.21 1012.95 1014.18 1015.20 1015.86 1015.78 1015.91 1011.59 1010.37 1010.65 1010.76 1010.32 1009.95 1009.37 1008.98 1008.77
1000.30 1003.83 1005.06 1005.41 1005.17 1005.76 1005.93 1006.48 1006.92 1007.40 1007.54 1007.32 1007.52 1007.36 1007.30 1007.62 1008.41 1008.92 1009.26 1009.70 1009.59 1009.94 1010.43 1010.81 1012.12 1012.63 1012.56 1013.28 1013.46 1013.49 1013.48 1014.30 1015.40 1015.92 1015.71 1014.29 1013.46 1011.16 1010.72 1010.47 1010.02 1009.14 1008.38 1007.80 1007.49
999.24 1001.47 1001.43 1004.42 1005.25 1005.59 1005.58 1005.97 1006.50 1006.98 1007.13 1007.64 1007.58 1007.70 1007.85 1008.27 1008.72 1009.47 1010.25 1010.85 1010.87 1011.12 1011.72 1012.29 1013.07 1013.38 1013.43 1013.95 1014.27 1014.21 1014.07 1014.74 1015.07 1015.11 1015.35 1013.14 1012.88 1011.85 1010.74 1010.00 1009.16 1008.63 1008.07 1007.32 1006.57
998.04 999.89 1001.63 1002.96 1004.68 1004.68 1005.44 1006.02 1006.24 1006.64 1006.82 1007.64 1007.81 1008.46 1008.69 1009.21 1009.48 1010.15 1010.84 1011.20 1011.37 1012.09 1012.57 1013.24 1014.23 1014.58 1014.57 1014.95 1014.98 1014.38 1014.09 1014.63 1014.62 1014.28 1013.75 1013.04 1012.27 1010.76 1009.78 1009.37 1008.68 1007.83 1007.19 1006.32 1005.57
997.55 998.60 999.76 1002.48 1003.95 1004.95 1005.42 1005.35 1006.09 1006.20 1007.11 1007.42 1007.60 1008.52 1009.07 1009.49 1009.87 1010.67 1011.18 1011.75 1012.05 1012.43 1013.09 1013.94 1014.77 1015.64 1015.11 1015.77 1015.68 1014.66 1013.36 1013.35 1013.28 1012.85 1012.50 1012.17 1011.02 1009.72 1008.98 1008.45 1007.79 1007.05 1006.33 1005.17 1004.19
Thickness
5671 5667 5668 5666 5664 5660 5660 5661 5661 5662 5663 5666 5668 5672 5678 5687 5697 5708 5705 5720 5724 5727 5728 5726 5728 5726 5726 5717 5721 5718 5687 5682 5696 5708 5718 5738 5736 5758 5765 5761 5762 5754 5756 5764 5752
5666 5663 5663 5662 5661 5657 5656 5659 5657 5658 5658 5661 5663 5667 5674 5683 5687 5701 5720 5720 5721 5722 5722 5714 5710 5714 5707 5712 5712 5702 5682 5696 5713 5724 5726 5738 5738 5747 5748 5746 5749 5737 5747 5751 5747
5662 5660 5657 5658 5657 5653 5653 5654 5653 5653 5653 5655 5657 5663 5670 5679 5683 5700 5714 5713 5713 5716 5716 5714 5712 5709 5701 5708 5708 5705 5691 5713 5721 5727 5731 5735 5738 5750 5745 5744 5749 5737 5734 5738 5739
5657 5656 5653 5652 5653 5651 5649 5647 5647 5647 5647 5649 5652 5657 5667 5672 5661 5706 5711 5710 5709 5710 5710 5708 5703 5698 5694 5694 5703 5696 5711 5716 5722 5730 5726 5728 5743 5745 5747 5748 5752 5747 5742 5739 5737
5652 5651 5648 5646 5646 5646 5645 5643 5640 5642 5643 5642 5646 5650 5660 5658 5670 5707 5706 5707 5704 5705 5700 5698 5692 5693 5688 5696 5695 5697 5706 5718 5725 5725 5724 5726 5727 5736 5741 5751 5751 5746 5739 5736 5739
5646 5646 5645 5642 5641 5641 5640 5638 5635 5635 5636 5637 5639 5642 5648 5651 5694 5701 5706 5702 5698 5697 5698 5696 5693 5694 5688 5691 5686 5700 5703 5710 5719 5719 5724 5720 5727 5732 5741 5746 5746 5739 5736 5736 5738
5641 5640 5638 5636 5636 5634 5634 5634 5630 5630 5630 5631 5631 5635 5642 5664 5691 5697 5696 5698 5698 5696 5691 5696 5697 5689 5687 5682 5695 5695 5689 5700 5715 5716 5717 5719 5714 5723 5742 5740 5738 5741 5739 5734 5736
5634 5634 5633 5631 5628 5628 5627 5628 5625 5623 5623 5623 5625 5627 5647 5679 5687 5690 5696 5693 5698 5698 5694 5695 5696 5687 5683 5686 5682 5675 5677 5674 5708 5711 5718 5707 5691 5729 5740 5732 5731 5736 5741 5739 5734
5626 5626 5626 5624 5620 5618 5619 5619 5618 5616 5616 5615 5617 5620 5649 5680 5675 5696 5693 5687 5692 5697 5695 5691 5687 5677 5677 5659 5652 5657 5647 5658 5682 5704 5700 5696 5687 5718 5733 5727 5728 5729 5733 5736 5736
5619 5617 5617 5617 5613 5612 5609 5608 5610 5610 5611 5612 5615 5612 5648 5666 5681 5689 5694 5687 5682 5680 5677 5671 5659 5659 5654 5640 5630 5639 5640 5657 5661 5695 5693 5685 5682 5696 5710 5715 5712 5712 5717 5732 5737
5611 5609 5608 5609 5604 5601 5596 5594 5599 5601 5605 5622 5624 5633 5651 5669 5680 5675 5683 5679 5670 5666 5649 5655 5636 5643 5648 5648 5651 5651 5648 5646 5668 5686 5675 5680 5679 5689 5698 5700 5699 5703 5712 5714 5717
5605 5604 5600 5598 5594 5592 5590 5591 5602 5597 5602 5621 5625 5629 5646 5651 5640 5662 5669 5656 5652 5642 5646 5638 5629 5655 5655 5651 5645 5644 5645 5650 5661 5675 5675 5679 5689 5689 5695 5696 5700 5701 5700 5705 5712
5602 5599 5594 5586 5582 5579 5585 5590 5585 5588 5588 5618 5628 5635 5644 5639 5638 5652 5656 5654 5646 5635 5636 5633 5646 5652 5648 5646 5639 5643 5638 5642 5645 5659 5666 5666 5687 5682 5691 5701 5700 5699 5697 5689 5683
5598 5592 5587 5577 5567 5575 5575 5580 5573 5576 5571 5609 5626 5644 5647 5646 5640 5661 5664 5647 5634 5636 5634 5631 5648 5644 5639 5636 5639 5631 5645 5640 5637 5629 5619 5651 5648 5658 5679 5677 5682 5677 5675 5666 5668
5594 5586 5584 5585 5576 5569 5578 5569 5563 5558 5560 5615 5620 5650 5651 5639 5648 5655 5663 5640 5636 5630 5627 5632 5637 5635 5631 5636 5639 5629 5633 5631 5628 5619 5613 5615 5608 5629 5658 5651 5641 5647 5645 5638 5641
5589 5584 5579 5566 5568 5571 5564 5559 5551 5533 5554 5598 5616 5619 5623 5630 5635 5639 5634 5639 5637 5624 5622 5621 5636 5630 5632 5635 5627 5627 5618 5609 5605 5599 5593 5609 5603 5626 5610 5604 5610 5613 5611 5619 5625
5590 5579 5572 5568 5565 5561 5554 5542 5522 5537 5572 5598 5602 5607 5607 5609 5615 5619 5614 5608 5605 5596 5598 5613 5613 5622 5627 5611 5610 5608 5590 5567 5569 5565 5579 5602 5594 5612 5588 5586 5588 5590 5591 5589 5596
5580 5575 5569 5565 5556 5551 5545 5524 5529 5560 5571 5588 5600 5602 5593 5598 5596 5597 5595 5590 5603 5598 5590 5585 5580 5600 5602 5595 5589 5591 5584 5562 5561 5559 5567 5585 5574 5589 5581 5581 5580 5576 5576 5579 5579
5570 5550 5547 5551 5549 5545 5538 5528 5550 5557 5566 5580 5579 5581 5583 5591 5590 5585 5580 5577 5577 5582 5571 5567 5566 5577 5581 5583 5583 5571 5556 5566 5549 5543 5538 5557 5576 5564 5570 5568 5567 5565 5561 5558 5560
5550 5534 5527 5540 5534 5535 5535 5535 5524 5536 5546 5563 5561 5558 5565 5575 5573 5572 5574 5567 5563 5566 5567 5559 5549 5558 5561 5570 5564 5559 5556 5537 5526 5521 5521 5542 5550 5557 5556 5556 5554 5554 5550 5549 5552
5536 5520 5515 5519 5526 5518 5519 5515 5508 5525 5544 5539 5543 5539 5555 5553 5558 5553 5543 5546 5553 5551 5551 5549 5533 5540 5552 5544 5536 5533 5522 5517 5513 5501 5482 5505 5538 5547 5545 5537 5536 5531 5532 5529 5528
5524 5508 5506 5505 5500 5491 5504 5510 5515 5517 5527 5517 5529 5536 5539 5539 5535 5527 5528 5535 5537 5543 5533 5529 5520 5511 5531 5536 5534 5527 5518 5506 5457 5446 5460 5442 5519 5539 5531 5517 5513 5511 5517 5511 5506
5496 5485 5483 5490 5498 5494 5495 5500 5509 5501 5508 5513 5512 5523 5529 5524 5506 5521 5517 5519 5523 5520 5518 5518 5496 5489 5516 5509 5512 5513 5507 5494 5477 5455 5454 5425 5483 5531 5512 5498 5502 5498 5500 5500 5493
5490 5468 5460 5466 5480 5488 5494 5492 5489 5497 5494 5503 5505 5510 5511 5509 5504 5500 5503 5501 5507 5503 5506 5503 5490 5493 5493 5479 5479 5480 5488 5475 5453 5412 5439 5447 5448 5487 5485 5476 5476 5480 5484 5485 5486
5482 5477 5487 5469 5467 5479 5484 5482 5479 5475 5494 5488 5491 5496 5493 5483 5487 5483 5482 5475 5481 5486 5479 5474 5464 5473 5479 5466 5462 5464 5466 5456 5440 5439 5416 5449 5437 5451 5463 5461 5463 5460 5457 5462 5470
5481 5477 5478 5481 5472 5479 5474 5468 5467 5467 5473 5468 5469 5475 5473 5461 5473 5460 5461 5459 5463 5462 5458 5455 5435 5451 5453 5445 5441 5444 5453 5440 5429 5424 5422 5426 5418 5442 5444 5439 5443 5447 5449 5455 5461
5483 5488 5490 5470 5465 5461 5456 5460 5462 5472 5466 5470 5471 5460 5457 5457 5457 5452 5452 5448 5446 5441 5436 5431 5424 5416 5424 5424 5412 5393 5444 5428 5416 5423 5419 5405 5418 5434 5433 5435 5437 5440 5446 5456 5466